Regional Weather Roundup
Issued by NWS Sterling, VA

Home | Current Version | Previous Version | Text Only | Print | Product List | Glossary On
Versions: 1 2 3 4 5 6 7 8 9 10 11 12 13 14 15 16 17 18 19 20 21 22 23 24 25 26 27 28 29 30 31 32 33 34 35 36 37 38 39 40 41 42 43 44 45 46 47 48 49 50
000
ASUS41 KLWX 220710
RWRLWX

REGIONAL WEATHER ROUNDUP
NATIONAL WEATHER SERVICE BALTIMORE MD/WASHINGTON DC
300 AM EDT FRI AUG 22 2014

Note: "FAIR" indicates few or no clouds below 12,000 feet
with no significant weather and/or obstructions to visibility.
 TC=TEMPERATURE CELSIUS

 * =Non NWS site. Station does not report precipitation (e.g. rain,
    snow, etc.), thunder, or fog.

DCZ001-MDZ009-015-VAZ040>042-051-053>054-220800-
WASHINGTON METRO
  /KDAA//-FT BELVOIR

CITY           SKY/WX    TMP DP  RH WIND       PRES   REMARKS
WASHINGTON NAT MOCLDY    77  66  68 NW3       29.97F
DULLES         MOCLDY    68  67  96 CALM      29.98F
ANDREWS AFB    MOCLDY    74  68  80 NW6       29.97F
QUANTICO       CLOUDY    76  66  71 N9        29.98S
COLLEGE PARK*  MOCLDY    72  70  94 CALM      29.96F
LEESBURG*      MOCLDY    70  70 100 NW3       30.00S
MANASSAS*      CLOUDY    72  70  94 SE3       29.98F
GAITHERSBURG*  MOCLDY    68  66  94 W5        30.02S

$$

MDZ006>007-011-014-220800-
BALTIMORE METRO

CITY           SKY/WX    TMP DP  RH WIND       PRES   REMARKS
BWI AIRPORT    PTCLDY    71  68  90 CALM      29.95F
MD SCIENCE CTR   N/A     75  68  78 MISG      29.96F
MARTIN STATE   FOG       72  72 100 CALM      29.96F VSB 1/2
ANNAPOLIS      MOCLDY    74  70  87 W3        29.95F
FORT MEADE*    PTCLDY    66  64  94 CALM      29.98F

$$

MDZ012-015-019>023-220800-
MARYLAND EASTERN SHORE

CITY           SKY/WX    TMP DP  RH WIND       PRES   REMARKS
OCEAN CITY     CLOUDY    77  75  93 S5        29.94F
SALISBURY      LGT RAIN  75  72  88 SW7       29.95F FOG
BAY BRIDGE AP*   N/A     77  68  73 NW5       29.95F
CAMBRIDGE*     CLOUDY    73  70  88 NE5       29.95F
EASTON*        MOCLDY    74  74 100 CALM      29.99S FOG

$$

MDZ017>025-220800-
SOUTHERN MARYLAND

CITY           SKY/WX    TMP DP  RH WIND       PRES   REMARKS
PATUXENT RIVER   N/A     74  72  93 W6        29.95
ST INIGOES     PTCLDY    73  69  87 W3        29.95S
LEONARDTOWN*   PTCLDY    72  70  94 W3        29.98S

$$

MDZ003>005-220800-
NORTH CENTRAL MARYLAND

CITY           SKY/WX    TMP DP  RH WIND       PRES   REMARKS
FREDERICK*     MOCLDY    70  70 100 E3        30.00F
HAGERSTOWN APT MOCLDY    68  65  90 CALM      29.99F
WESTMINSTER*   MOCLDY    70  70 100 CALM      29.99S

$$

MDZ501>502-220800-
WESTERN MARYLAND

CITY           SKY/WX    TMP DP  RH WIND       PRES   REMARKS
OAKLAND*       CLOUDY    63 N/A N/A W3        30.11S FOG
CUMBERLAND*    CLOUDY    68  64  88 CALM      30.05S

$$

VAZ025>031-220800-
SHENANDOAH VALLEY

CITY           SKY/WX    TMP DP  RH WIND       PRES   REMARKS
WINCHESTER*    CLOUDY    68  64  88 CALM      30.00F
STAUNTON*      PTCLDY    67  64  90 CALM      30.05F

$$

WVZ021-048>050-054>055-220800-
EASTERN WEST VIRGINIA PANHANDLE

CITY           SKY/WX    TMP DP  RH WIND       PRES   REMARKS
MARTINSBURG    CLOUDY    71  63  75 SW3       30.00F
PETERSBURG*    NOT AVBL

$$

VAZ036>039-050-220800-
CENTRAL FOOTHILLS

CITY           SKY/WX    TMP DP  RH WIND       PRES   REMARKS
CHARLOTTESVILL CLEAR     72  67  84 VRB3      30.00S
ORANGE*        MOCLDY    73  68  83 CALM      30.00F

$$

VAZ055>057-220800-
NORTH AND CENTRAL PIEDMONT

CITY           SKY/WX    TMP DP  RH WIND       PRES   REMARKS
FREDERICKSBRG* CLOUDY    76  76 100 CALM      29.97S
STAFFORD*      MOCLDY    72  72 100 CALM      30.02S FOG

$$

NCZ024-NYZ072-PAZ021-071-VAZ022-071-220800-
OTHER REGIONAL OBSERVATIONS

CITY           SKY/WX    TMP DP  RH WIND       PRES   REMARKS
NEW YORK CITY  CLOUDY    67  65  93 S6        30.05S FOG
PHILADELPHIA   RAIN      70  67  90 NE14      29.99R
PITTSBURGH     CLOUDY    68  67  96 CALM      30.02F FOG
ROANOKE        MOCLDY    71  65  81 W10       30.07F
RICHMOND       PTCLDY    77  68  73 NW5       29.98R
RALEIGH        PTCLDY    74  71  91 CALM      30.02F

$$

ANZ530>537-220800-
MARINE OBSERVATIONS

STATION/POSITION TIME  TEMP    WIND        PRES
                       AIR SEA DIR/SP/G
                 (UTC) (F)     (DEG/KT/KT) (MB)
THOMAS PT LIGHT  0700   76 79  290/  5/  5 1014.8F
BALT KEY BRIDGE  0700   76     270/  6/  6 1014.2F
COVE POINT       0700   76     300/  5/  6 1014.1F
LEWISETTA        0700   76 80  250/  5/  6 1014.2S
SOLOMONS ISLAND  0700      80                N/A
PINEY POINT      0700          340/  9/ 10   N/A

$$



USA.gov is the U.S. government's official web portal to all federal, state and local government web resources and services.